Tracking 31030 objects as of 15-Jul-2025
HD Live streaming from Space Station
objects crossing your sky now

STARLINK-5402

Track STARLINK-5402 now!
10-day predictions
STARLINK-5402 is classified as:


NORAD ID: 54869
Int'l Code: 2022-177BB
Perigee: 565.1 km
Apogee: 567.4 km
Inclination: 43.0 °
Period: 95.8 minutes
Semi major axis: 6937 km
RCS: Unknown
Launch date: December 28, 2022
Source: United States (US)
Launch site: AIR FORCE EASTERN TEST RANGE (AFETR)
Your satellite tracking list
Your tracking list is empty




NASA's NSSDC Master Catalog

Two Line Element Set (TLE):
1 54869U 22177BB  25195.73568701 -.00000325  00000-0 -89452-5 0  9995
2 54869  43.0058 333.0571 0001656 268.9183  91.1469 15.02533848141310
Source of the keplerian elements: AFSPC